Погода в Металлострое

Россия / Санкт-Петербург и Ленинградская область     59°48′28″N   30°34′24″E
темп.,
°C
ветер,
м/с
пор.,
м/с
влажн.,
%
обл.,
%
осадки,
мм/ч
давл.,
гПа
погр.,
м
17 мая, пн
пн1700:00+10з00745 0.0 101210
03:00+10юв22845 0.0 101217
06:00+11юв269235 0.0 1013150
09:00+17вюв356884 0.0 1012497
12:00+21юв5753100 0.0 10121255
15:00+23юв5847100 0.0 10112089
18:00+22юв4853100 0.0 10091103
21:00+18вюв31070100 0.0 1008242
18 мая, вт
вт1800:00+17юв31081100 1.1 1007293
03:00+14всв3597100 3.3 1006129
06:00+15в399797 0.0 1004290
09:00+19юв5883100 0.0 1004659
12:00+23ююв6106496 0.0 10031313
15:00+26ю71251100 0.2 10022246
18:00+24ю476492 0.3 1001832
21:00+16ююв31095100 10.3 1004487
19 мая, ср
ср1900:00+16юв31097100 2.0 1004327
03:00+15ююв2396100 2.2 100369
06:00+14ссв029799 0.0 1003104
09:00+18ююв4880100 0.0 1003911
12:00+21ююз696564 0.3 10041401
15:00+20зюз567099 1.4 10051018
18:00+15сз4579100 0.2 1006458
21:00+12ссз359496 2.3 1007170
20 мая, чт
чт2000:00+10ссз249628 0.2 100785
03:00+10сз2297100 0.2 100734
06:00+11с1193100 0.0 100776
09:00+14св2293100 0.0 1006353
12:00+16св2388100 0.0 1005399
15:00+18св5879100 0.8 1001785
18:00+14с2499100 13.3 999228
21:00+13сз1298100 13.4 998113
21 мая, пт
пт2100:00+12зюз4898100 0.4 998453
03:00+10зюз61295100 1.4 999553
06:00+10зюз51293100 0.4 1001965
09:00+10юз61393100 1.3 1004669
12:00+15зюз7116879 0.1 10071299
15:00+18з594594 0.1 10092302
18:00+16зюз610546 0.0 10101936
21:00+10сз248196 0.3 101198